Weather History for KAQP - July, 2013

Change the Weather History Date:

Sunday, July 21, 2013

  Actual Average Record
Temperature  
Mean Temperature 74 °F -  
Max Temperature 84 °F 80 °F 91 °F (2004)
Min Temperature 64 °F 59 °F 48 °F (2000)
Cooling Degree Days 9    
Growing Degree Days 24 (Base 50)    
Moisture  
Dew Point 64 °F    
Average Humidity 71    
Maximum Humidity 88    
Minimum Humidity 48    
Precipitation  
Precipitation 0.00 in - - ()
Sea Level Pressure  
Sea Level Pressure 29.84 in    
Wind  
Wind Speed 6 mph (SE)    
Max Wind Speed 9 mph    
Max Gust Speed -    
Visibility 10 miles    
Events Rain    
Averages and records for this station are not official NWS values.
T = Trace of Precipitation, MM = Missing Value Source: NWS Daily Summary

Daily Weather History Graph

Daily Weather History Graph

Search for Another Location

Airport or City:

Trip Planner

Search our weather history database for the weather conditions in past years. The results will help you decide how hot, cold, wet, or windy it might be!

Date:

Astronomy

Jul. 21, 2013 Rise Set
Actual Time 5:56 AM CDT 9:03 PM CDT
Civil Twilight 5:21 AM CDT 9:38 PM CDT
Nautical Twilight 4:35 AM CDT 10:23 PM CDT
Astronomical Twilight 3:40 AM CDT 11:18 PM CDT
Moon 7:59 PM CDT (7/21) 4:45 AM CDT (7/21)
Length of Visible Light 16h 16m
Length of Day
15h 06m
Waxing Gibbous, 98% of the Moon is Illuminated
Jul 21
Waxing Gibbous
Jul 22
Full
Jul 29
Last Quarter
Aug 6
New
Aug 14
First Quarter

Hourly Weather History & Observations

Time (CDT) Temp. Heat Index Dew Point Humidity Pressure Visibility Wind Dir Wind Speed Gust Speed Precip Events Conditions
12:13 AM 66.2 °F - 60.8 °F 83% 29.92 in 10.0 mi East 5.8 mph - N/A   Clear
12:33 AM 66.2 °F - 60.8 °F 83% 29.92 in 10.0 mi ENE 5.8 mph - N/A   Clear
12:53 AM 66.2 °F - 60.8 °F 83% 29.92 in 10.0 mi ENE 5.8 mph - N/A   Clear
1:13 AM 66.2 °F - 60.8 °F 83% 29.92 in 10.0 mi East 5.8 mph - N/A   Scattered Clouds
1:34 AM 66.2 °F - 60.8 °F 83% 29.92 in 10.0 mi East 5.8 mph - N/A   Scattered Clouds
1:53 AM 66.2 °F - 60.8 °F 83% 29.92 in 10.0 mi East 5.8 mph - N/A   Mostly Cloudy
2:13 AM 66.2 °F - 60.8 °F 83% 29.91 in 10.0 mi East 4.6 mph - N/A   Mostly Cloudy
2:33 AM 64.4 °F - 60.8 °F 88% 29.90 in 10.0 mi East 4.6 mph - N/A   Scattered Clouds
2:53 AM 64.4 °F - 60.8 °F 88% 29.91 in 10.0 mi East 4.6 mph - N/A   Scattered Clouds
3:14 AM 66.2 °F - 60.8 °F 83% 29.91 in 10.0 mi ESE 3.5 mph - N/A   Mostly Cloudy
3:34 AM 66.2 °F - 60.8 °F 83% 29.91 in 10.0 mi SE 4.6 mph - N/A   Overcast
3:53 AM 66.2 °F - 60.8 °F 83% 29.90 in 10.0 mi ESE 4.6 mph - N/A   Mostly Cloudy
4:14 AM 64.4 °F - 60.8 °F 88% 29.90 in 10.0 mi Calm Calm - N/A   Scattered Clouds
4:33 AM 64.4 °F - 60.8 °F 88% 29.90 in 10.0 mi ESE 3.5 mph - N/A   Mostly Cloudy
4:53 AM 64.4 °F - 59.0 °F 83% 29.89 in 10.0 mi ESE 5.8 mph - N/A   Mostly Cloudy
5:13 AM 64.4 °F - 60.8 °F 88% 29.89 in 10.0 mi East 5.8 mph - N/A   Mostly Cloudy
5:33 AM 64.4 °F - 59.0 °F 83% 29.89 in 10.0 mi East 5.8 mph - N/A   Mostly Cloudy
5:53 AM 64.4 °F - 59.0 °F 83% 29.88 in 10.0 mi East 8.1 mph - N/A   Overcast
6:13 AM 64.4 °F - 59.0 °F 83% 29.88 in 10.0 mi ESE 8.1 mph - N/A Rain Rain
6:33 AM 64.4 °F - 60.8 °F 88% 29.88 in 10.0 mi East 6.9 mph - N/A   Scattered Clouds
6:53 AM 64.4 °F - 60.8 °F 88% 29.89 in 10.0 mi Calm Calm - N/A   Mostly Cloudy
7:14 AM 64.4 °F - 60.8 °F 88% 29.89 in 10.0 mi Calm Calm - N/A   Scattered Clouds
7:33 AM 66.2 °F - 60.8 °F 83% 29.89 in 10.0 mi East 3.5 mph - N/A   Mostly Cloudy
7:53 AM 66.2 °F - 60.8 °F 83% 29.89 in 10.0 mi ESE 9.2 mph - N/A   Mostly Cloudy
8:13 AM 66.2 °F - 60.8 °F 83% 29.89 in 10.0 mi East 5.8 mph - N/A   Scattered Clouds
8:34 AM 69.8 °F - 60.8 °F 73% 29.88 in 10.0 mi East 6.9 mph - N/A   Scattered Clouds
8:53 AM 69.8 °F - 60.8 °F 73% 29.88 in 10.0 mi ESE 9.2 mph - N/A   Scattered Clouds
9:13 AM 69.8 °F - 62.6 °F 78% 29.89 in 10.0 mi ESE 5.8 mph - N/A   Scattered Clouds
9:33 AM 71.6 °F - 64.4 °F 78% 29.89 in 10.0 mi ESE 5.8 mph - N/A   Clear
9:53 AM 73.4 °F - 64.4 °F 73% 29.89 in 10.0 mi SE 6.9 mph - N/A   Clear
10:14 AM 73.4 °F - 64.4 °F 73% 29.89 in 10.0 mi SE 6.9 mph - N/A   Scattered Clouds
10:33 AM 73.4 °F - 64.4 °F 73% 29.88 in 10.0 mi ESE 6.9 mph - N/A   Clear
10:53 AM 75.2 °F - 64.4 °F 69% 29.88 in 10.0 mi ESE 5.8 mph - N/A   Clear
11:13 AM 75.2 °F - 66.2 °F 73% 29.88 in 10.0 mi SE 6.9 mph - N/A   Clear
11:33 AM 78.8 °F - 66.2 °F 65% 29.87 in 10.0 mi SE 8.1 mph - N/A   Clear
11:53 AM 78.8 °F - 66.2 °F 65% 29.86 in 10.0 mi ESE 5.8 mph - N/A   Scattered Clouds
12:13 PM 80.6 °F 82.7 °F 66.2 °F 61% 29.86 in 10.0 mi ESE 5.8 mph - N/A   Clear
12:34 PM 80.6 °F 82.7 °F 66.2 °F 61% 29.85 in 10.0 mi ESE 5.8 mph - N/A   Scattered Clouds
12:54 PM 80.6 °F 82.7 °F 66.2 °F 61% 29.85 in 10.0 mi ESE 6.9 mph - N/A   Scattered Clouds
1:13 PM 80.6 °F 82.7 °F 66.2 °F 61% 29.84 in 10.0 mi SE 8.1 mph - N/A   Scattered Clouds
1:33 PM 82.4 °F 84.6 °F 66.2 °F 58% 29.84 in 10.0 mi SE 5.8 mph - N/A   Scattered Clouds
1:53 PM 82.4 °F 84.6 °F 66.2 °F 58% 29.84 in 10.0 mi SSE 4.6 mph - N/A   Scattered Clouds
2:13 PM 82.4 °F 83.9 °F 64.4 °F 54% 29.83 in 10.0 mi SSE 3.5 mph - N/A   Scattered Clouds
2:33 PM 82.4 °F 83.9 °F 64.4 °F 54% 29.82 in 10.0 mi SSE 5.8 mph - N/A   Scattered Clouds
2:53 PM 84.2 °F 85.6 °F 64.4 °F 51% 29.82 in 10.0 mi South 8.1 mph - N/A   Scattered Clouds
3:13 PM 84.2 °F 85.6 °F 64.4 °F 51% 29.81 in 10.0 mi SSE 4.6 mph - N/A   Scattered Clouds
3:33 PM 84.2 °F 85.6 °F 64.4 °F 51% 29.81 in 7.0 mi SSE 4.6 mph - N/A   Clear
3:53 PM 84.2 °F 85.6 °F 64.4 °F 51% 29.81 in 10.0 mi SSE 5.8 mph - N/A   Scattered Clouds
4:13 PM 84.2 °F 85.6 °F 64.4 °F 51% 29.80 in 7.0 mi South 6.9 mph - N/A   Clear
4:33 PM 84.2 °F 85.6 °F 64.4 °F 51% 29.80 in 7.0 mi SSE 3.5 mph - N/A   Scattered Clouds
4:53 PM 84.2 °F 85.0 °F 62.6 °F 48% 29.79 in 10.0 mi SSE 4.6 mph - N/A   Scattered Clouds
5:13 PM 84.2 °F 85.6 °F 64.4 °F 51% 29.79 in 5.0 mi SSE 5.8 mph - N/A   Haze
5:34 PM 84.2 °F 85.6 °F 64.4 °F 51% 29.78 in 7.0 mi SSE 4.6 mph - N/A   Clear
5:53 PM 84.2 °F 85.6 °F 64.4 °F 51% 29.78 in 7.0 mi SSE 5.8 mph - N/A   Clear
6:13 PM 84.2 °F 85.6 °F 64.4 °F 51% 29.77 in 10.0 mi SSE 4.6 mph - N/A   Clear
6:33 PM 84.2 °F 85.6 °F 64.4 °F 51% 29.75 in 7.0 mi SSE 6.9 mph - N/A   Clear
6:53 PM 84.2 °F 85.6 °F 64.4 °F 51% 29.76 in 10.0 mi South 6.9 mph - N/A   Clear
7:13 PM 84.2 °F 85.6 °F 64.4 °F 51% 29.76 in 10.0 mi SE 3.5 mph - N/A   Clear
7:33 PM 82.4 °F 84.6 °F 66.2 °F 58% 29.77 in 10.0 mi SE 3.5 mph - N/A   Clear
7:53 PM 80.6 °F 82.7 °F 66.2 °F 61% 29.77 in 10.0 mi Calm Calm - N/A   Clear
8:13 PM 80.6 °F 82.7 °F 66.2 °F 61% 29.76 in 10.0 mi SE 4.6 mph - N/A   Clear
8:33 PM 78.8 °F - 66.2 °F 65% 29.76 in 10.0 mi SE 5.8 mph - N/A   Clear
8:53 PM 78.8 °F - 68.0 °F 69% 29.76 in 10.0 mi SE 6.9 mph - N/A   Clear
9:13 PM 77.0 °F - 68.0 °F 74% 29.76 in 10.0 mi SE 9.2 mph - N/A   Clear
9:33 PM 75.2 °F - 66.2 °F 73% 29.76 in 10.0 mi SE 5.8 mph - N/A   Clear
9:53 PM 75.2 °F - 66.2 °F 73% 29.76 in 10.0 mi SE 6.9 mph - N/A   Clear
10:13 PM 75.2 °F - 68.0 °F 78% 29.76 in 10.0 mi SE 5.8 mph - N/A   Clear
10:33 PM 73.4 °F - 68.0 °F 83% 29.75 in 10.0 mi SE 5.8 mph - N/A   Clear
10:53 PM 73.4 °F - 66.2 °F 78% 29.75 in 10.0 mi SE 5.8 mph - N/A   Clear
11:14 PM 73.4 °F - 66.2 °F 78% 29.74 in 10.0 mi SE 8.1 mph - N/A   Clear
11:34 PM 73.4 °F - 66.2 °F 78% 29.74 in 10.0 mi SSE 6.9 mph - N/A   Clear
11:54 PM 71.6 °F - 66.2 °F 83% 29.72 in 10.0 mi SE 8.1 mph - N/A   Clear